When you browse on this site, cookies collect data to enhance your experience and personalize the content and advertising you see.
Visit our Privacy Policy to learn more. By continuing to use the site, you agree to this use of cookies and data.
  • In Austria
  • List of Countries
  • For 7 days
  • Water Temperature
  • Weather Map
  • News
  • Weather Widgets
  • user-avatar
    Login

    Hourly Weather Ciudad Sahagun

    Today, 5 June, Friday

    Time Temperature Precipitation Wind Pressure Humidity
    00:00 +15°C° 0 mm 1 mps 566 mmHg 85%
    01:00 +15°C° 0 mm 1 mps 566 mmHg 83%
    02:00 +15°C° 0 mm 1 mps 566 mmHg 81%
    03:00 +14°C° 0 mm 1 mps 566 mmHg 84%
    04:00 +13°C° 0 mm 1 mps 566 mmHg 86%
    05:00 +13°C° 0 mm 1 mps 565 mmHg 89%
    06:00 +15°C° 0 mm 1 mps 567 mmHg 76%
    07:00 +16°C° 0 mm 1 mps 568 mmHg 63%
    08:00 +18°C° 0 mm 2 mps 569 mmHg 50%
    09:00 +20°C° 0 mm 2 mps 569 mmHg 44%
    10:00 +22°C° 0 mm 3 mps 570 mmHg 37%
    11:00 +25°C° 0 mm 4 mps 570 mmHg 31%
    12:00 +25°C° 0 mm 4 mps 570 mmHg 32%
    13:00 +25°C° 0 mm 5 mps 569 mmHg 33%
    14:00 +26°C° 0 mm 6 mps 569 mmHg 35%
    15:00 +23°C° 0 mm 6 mps 568 mmHg 42%
    16:00 +22°C° 0 mm 6 mps 568 mmHg 49%
    17:00 +20°C° 0 mm 6 mps 567 mmHg 57%
    18:00 +17°C° 0 mm 5 mps 567 mmHg 64%
    19:00 +15°C° 0 mm 4 mps 567 mmHg 72%
    20:00 +14°C° 0 mm 3 mps 567 mmHg 80%
    21:00 +14°C° 0 mm 2 mps 566 mmHg 82%
    22:00 +14°C° 0 mm 2 mps 566 mmHg 85%
    23:00 +13°C° 0 mm 1 mps 566 mmHg 87%

    Tomorrow, 6 June, Saturday

    Time Temperature Precipitation Wind Pressure Humidity
    00:00 +13°C° 0 mm 1 mps 566 mmHg 87%
    01:00 +13°C° 0 mm 1 mps 565 mmHg 88%
    02:00 +11°C° 0 mm 0 mps 565 mmHg 88%
    03:00 +11°C° 0 mm 0 mps 565 mmHg 88%
    04:00 +11°C° 0 mm 0 mps 565 mmHg 88%
    05:00 +10°C° 0 mm 0 mps 564 mmHg 88%
    06:00 +12°C° 0 mm 0 mps 566 mmHg 75%
    07:00 +15°C° 0 mm 0 mps 567 mmHg 63%
    08:00 +19°C° 0 mm 1 mps 569 mmHg 50%
    09:00 +21°C° 0 mm 1 mps 569 mmHg 43%
    10:00 +21°C° 0 mm 2 mps 569 mmHg 36%
    11:00 +24°C° 0 mm 2 mps 570 mmHg 30%
    12:00 +25°C° 0 mm 3 mps 570 mmHg 29%
    13:00 +25°C° 0 mm 3 mps 569 mmHg 29%
    14:00 +26°C° 0 mm 4 mps 569 mmHg 28%
    15:00 +25°C° 0.1 mm 4 mps 568 mmHg 38%
    16:00 +22°C° 0.1 mm 5 mps 568 mmHg 47%
    17:00 +21°C° 0.1 mm 5 mps 567 mmHg 56%
    18:00 +19°C° 0.1 mm 4 mps 567 mmHg 65%
    19:00 +17°C° 0.1 mm 3 mps 567 mmHg 74%
    20:00 +16°C° 0.1 mm 2 mps 567 mmHg 84%
    21:00 +15°C° 0 mm 2 mps 566 mmHg 85%
    22:00 +14°C° 0 mm 1 mps 566 mmHg 87%
    23:00 +14°C° 0 mm 1 mps 566 mmHg 89%

    Day after tomorrow, 7 June, Sunday

    Time Temperature Precipitation Wind Pressure Humidity
    00:00 +14°C° 0 mm 1 mps 566 mmHg 88%
    01:00 +12°C° 0 mm 0 mps 565 mmHg 87%
    02:00 +12°C° 0 mm 0 mps 565 mmHg 86%
    03:00 +13°C° 0 mm 1 mps 565 mmHg 86%
    04:00 +12°C° 0 mm 1 mps 565 mmHg 87%
    05:00 +12°C° 0 mm 1 mps 565 mmHg 88%
    06:00 +14°C° 0 mm 1 mps 566 mmHg 78%
    07:00 +16°C° 0 mm 1 mps 567 mmHg 69%
    08:00 +19°C° 0 mm 2 mps 568 mmHg 59%
    09:00 +20°C° 0 mm 2 mps 569 mmHg 50%
    10:00 +23°C° 0 mm 2 mps 569 mmHg 40%
    11:00 +25°C° 0 mm 2 mps 570 mmHg 30%
    12:00 +26°C° 0 mm 2 mps 570 mmHg 29%
    13:00 +26°C° 0 mm 3 mps 569 mmHg 27%
    14:00 +27°C° 0 mm 3 mps 569 mmHg 25%
    15:00 +26°C° 0 mm 4 mps 569 mmHg 30%
    16:00 +25°C° 0 mm 4 mps 568 mmHg 35%
    17:00 +23°C° 0 mm 4 mps 568 mmHg 39%
    18:00 +21°C° 0.1 mm 3 mps 567 mmHg 50%
    19:00 +19°C° 0.1 mm 3 mps 567 mmHg 60%
    20:00 +17°C° 0.1 mm 2 mps 566 mmHg 71%
    21:00 +17°C° 0 mm 2 mps 566 mmHg 74%
    22:00 +16°C° 0 mm 2 mps 566 mmHg 77%
    23:00 +16°C° 0 mm 1 mps 566 mmHg 81%

    8 June, Monday

    Time Temperature Precipitation Wind Pressure Humidity
    00:00 +16°C° 0 mm 2 mps 566 mmHg 82%
    01:00 +15°C° 0 mm 2 mps 566 mmHg 84%
    02:00 +15°C° 0 mm 2 mps 565 mmHg 86%
    03:00 +15°C° 0 mm 2 mps 565 mmHg 87%
    04:00 +15°C° 0 mm 1 mps 565 mmHg 88%
    05:00 +14°C° 0 mm 1 mps 565 mmHg 89%
    06:00 +16°C° 0 mm 2 mps 566 mmHg 80%
    07:00 +18°C° 0 mm 2 mps 567 mmHg 70%
    08:00 +20°C° 0 mm 2 mps 568 mmHg 61%
    09:00 +23°C° 0 mm 2 mps 569 mmHg 53%
    10:00 +24°C° 0 mm 2 mps 570 mmHg 45%
    11:00 +26°C° 0 mm 2 mps 570 mmHg 37%
    12:00 +26°C° 0 mm 2 mps 570 mmHg 37%
    13:00 +26°C° 0 mm 2 mps 569 mmHg 37%
    14:00 +26°C° 0 mm 1 mps 569 mmHg 38%
    15:00 +25°C° 0.1 mm 2 mps 568 mmHg 40%
    16:00 +25°C° 0.1 mm 2 mps 568 mmHg 43%
    17:00 +24°C° 0.1 mm 2 mps 568 mmHg 45%
    18:00 +23°C° 0.2 mm 2 mps 568 mmHg 52%
    19:00 +20°C° 0.2 mm 2 mps 568 mmHg 59%
    20:00 +19°C° 0.2 mm 2 mps 567 mmHg 67%
    21:00 +18°C° 0 mm 2 mps 567 mmHg 69%
    22:00 +18°C° 0 mm 2 mps 567 mmHg 72%
    23:00 +18°C° 0 mm 1 mps 567 mmHg 74%

    9 June, Tuesday

    Time Temperature Precipitation Wind Pressure Humidity
    00:00 +18°C° 0 mm 1 mps 567 mmHg 75%
    01:00 +18°C° 0 mm 1 mps 567 mmHg 75%
    02:00 +16°C° 0 mm 1 mps 566 mmHg 76%
    03:00 +16°C° 0 mm 1 mps 566 mmHg 76%
    04:00 +16°C° 0 mm 1 mps 567 mmHg 77%
    05:00 +16°C° 0 mm 1 mps 567 mmHg 78%
    06:00 +19°C° 0 mm 1 mps 568 mmHg 70%
    07:00 +20°C° 0 mm 1 mps 569 mmHg 62%
    08:00 +22°C° 0 mm 1 mps 570 mmHg 54%
    09:00 +24°C° 0 mm 2 mps 570 mmHg 45%
    10:00 +26°C° 0 mm 3 mps 571 mmHg 36%
    11:00 +28°C° 0 mm 4 mps 572 mmHg 26%
    12:00 +28°C° 0 mm 5 mps 571 mmHg 25%
    13:00 +28°C° 0 mm 6 mps 571 mmHg 24%
    14:00 +29°C° 0 mm 6 mps 571 mmHg 23%
    15:00 +27°C° 0 mm 6 mps 570 mmHg 24%
    16:00 +26°C° 0 mm 6 mps 569 mmHg 26%
    17:00 +24°C° 0 mm 6 mps 569 mmHg 27%
    18:00 +22°C° 0 mm 5 mps 568 mmHg 35%
    19:00 +20°C° 0 mm 3 mps 568 mmHg 43%
    20:00 +18°C° 0 mm 2 mps 568 mmHg 51%
    21:00 +17°C° 0 mm 2 mps 568 mmHg 53%
    22:00 +18°C° 0 mm 1 mps 568 mmHg 56%
    23:00 +16°C° 0 mm 1 mps 568 mmHg 58%

    10 June, Wednesday

    Time Temperature Precipitation Wind Pressure Humidity
    00:00 +16°C° 0 mm 1 mps 567 mmHg 62%
    01:00 +15°C° 0 mm 1 mps 567 mmHg 65%
    02:00 +15°C° 0 mm 1 mps 567 mmHg 69%
    03:00 +13°C° 0 mm 0 mps 566 mmHg 70%
    04:00 +13°C° 0 mm 0 mps 566 mmHg 72%
    05:00 +12°C° 0 mm 0 mps 566 mmHg 74%
    06:00 +15°C° 0 mm 1 mps 567 mmHg 63%
    07:00 +18°C° 0 mm 1 mps 569 mmHg 52%
    08:00 +19°C° 0 mm 2 mps 570 mmHg 41%
    09:00 +21°C° 0 mm 3 mps 570 mmHg 36%
    10:00 +24°C° 0 mm 3 mps 571 mmHg 31%
    11:00 +26°C° 0 mm 4 mps 572 mmHg 26%
    12:00 +26°C° 0 mm 5 mps 571 mmHg 27%
    13:00 +26°C° 0 mm 6 mps 571 mmHg 28%
    14:00 +26°C° 0 mm 6 mps 570 mmHg 29%
    15:00 +24°C° 0 mm 6 mps 570 mmHg 36%
    16:00 +22°C° 0 mm 6 mps 569 mmHg 43%
    17:00 +20°C° 0 mm 6 mps 568 mmHg 50%
    18:00 +19°C° 0 mm 5 mps 568 mmHg 61%
    19:00 +17°C° 0 mm 4 mps 568 mmHg 71%
    20:00 +15°C° 0 mm 2 mps 567 mmHg 82%
    21:00 +15°C° 0 mm 2 mps 567 mmHg 84%
    22:00 +14°C° 0 mm 1 mps 567 mmHg 86%
    23:00 +14°C° 0 mm 1 mps 567 mmHg 88%
    Show more